Find Starlink 5280

NORAD ID: 54166 Int'l Des: 2022-141 Owner: SPXS Country: US Constellation: starlink operational
LEOCIRCULAR

当前视图

正在加载3D地球...

About Starlink 5280

Starlink 5280 (NORAD 54166) is a starlink constellation satellite (v1.5) launched Oct 28, 2022 by SPXS of US. It operates in LEO, CIRCULAR orbit with a mass of 305.00 kg.

即将过境

Passes for default location (London). Set your location on the main map for personalized predictions.

高度历史

Loading altitude history...

两行轨道根数

1 54166U 22141K 26258.30931493 .00000541 00000-0 27161-4 0 9998
2 54166 53.1582 218.2280 0001151 78.7406 281.3726 15.34392290214689
Epoch: Sep 15, 2026 • Age: 13 hours

当前状态

高度 468.0 km
远地点 / 近地点 N/A
速度 7.64 km/s
星下点 50.98°N, 16.07°W
发射日期 Oct 28, 2022
运行时间 3.8 years
类型 internet

技术详情

分类 Payload
质量 305.00 kg
干质量 290.00 kg
长度 0.20 m
跨度 9.00 m
形状 ? Box + pan
制造商 SPXS
平台类型 Starlink
阶段状态 In Orbit
所有者/国家 SPXS/US

Most Searched